Tracking 29892 objects as of 21-Nov-2024
HD Live streaming from Space Station
objects crossing your sky now

COSMOS 1275 DEB

Track COSMOS 1275 DEB now!
10-day predictions


NORAD ID: 39967
Int'l Code: 1981-053PK
Perigee: 892.7 km
Apogee: 937.8 km
Inclination: 82.9 °
Period: 103.2 minutes
Semi major axis: 7286 km
RCS: 0.0124 m2 (small)
Launch date: April 25, 1981
Source: Commonwealth of Independent States (former USSR) (CIS)
Launch site: PLESETSK MISSILE AND SPACE COMPLEX (PKMTR)

Note: This is SATELLITE DEBRIS
Your satellite tracking list
Your tracking list is empty




NASA's NSSDC Master Catalog

Two Line Element Set (TLE):
1 39967U 81053PD  24324.39183194  .00002172  00000-0  15721-2 0  9994
2 39967  82.9229 109.5661 0030917  34.4602 325.8562 13.95871281531190
Source of the keplerian elements: AFSPC